Simultaneous Nadir Overpasses (SNOs) Predictions

Prediction of SNOs between AQUA and TERRA Satellite Orbit:

Table of predicted SNOs for the next 14.0 days since TLE Epoch: 9/17/2022
Index Date (AQUA) Time (AQUA) Lat,Lon (AQUA) SZA (AQUA ) Date (TERRA) Time (TERRA) Lat,Lon (TERRA) SZA (TERRA ) Distance(km) Time Diff (sec)
1 09/17/2022 04:32:26 -71.72, -68.86 110.66 09/17/2022 04:32:45 -71.71, -68.86 110.66 0.58 19
2 09/17/2022 05:21:53 71.72, 98.77 69.36 09/17/2022 05:22:10 71.72, 98.80 69.36 1.10 17
3 09/17/2022 06:11:18 -71.72, -93.58 110.63 09/17/2022 06:11:38 -71.71, -93.58 110.64 1.29 20
4 09/17/2022 07:00:45 71.72, 74.05 69.39 09/17/2022 07:01:03 71.71, 74.07 69.39 1.04 18
5 09/17/2022 07:50:10 -71.72,-118.30 110.60 09/17/2022 07:50:31 -71.70,-118.31 110.62 2.06 21
6 09/17/2022 08:39:37 71.72, 49.33 69.42 09/17/2022 08:39:56 71.71, 49.35 69.41 1.52 19
7 09/17/2022 09:29:02 -71.72,-143.02 110.57 09/17/2022 09:29:24 -71.70,-143.04 110.60 2.85 22
8 09/17/2022 10:18:29 71.72, 24.61 69.45 09/17/2022 10:18:49 71.71, 24.62 69.43 2.21 20
9 09/17/2022 11:07:54 -71.72,-167.74 110.54 09/17/2022 11:08:16 -71.75,-167.68 110.52 3.25 22
10 09/17/2022 11:57:21 71.73, -0.11 69.48 09/17/2022 11:57:42 71.70, -0.11 69.45 2.97 21
11 09/17/2022 12:46:46 -71.73, 167.54 110.52 09/17/2022 12:47:09 -71.74, 167.59 110.50 2.49 23
12 09/17/2022 13:36:13 71.73, -24.83 69.51 09/17/2022 13:36:34 71.75, -24.75 69.53 3.53 21
13 09/17/2022 14:25:38 -71.73, 142.82 110.49 09/17/2022 14:26:02 -71.74, 142.86 110.48 1.77 24
14 09/17/2022 15:15:05 71.73, -49.55 69.54 09/17/2022 15:15:27 71.75, -49.48 69.55 2.83 22
15 09/17/2022 16:04:30 -71.73, 118.10 110.46 09/17/2022 16:04:55 -71.73, 118.13 110.46 1.18 25
16 09/17/2022 16:53:57 71.73, -74.27 69.56 09/17/2022 16:54:20 71.74, -74.21 69.57 2.20 23
17 09/17/2022 17:43:22 -71.73, 93.38 110.43 09/17/2022 17:43:48 -71.73, 93.41 110.43 0.97 26
18 09/17/2022 18:32:49 71.74, -98.99 69.59 09/17/2022 18:33:13 71.74, -98.94 69.59 1.77 24
19 09/17/2022 19:22:14 -71.73, 68.66 110.40 09/17/2022 19:22:41 -71.72, 68.68 110.41 1.36 27
20 09/17/2022 20:11:41 71.74,-123.71 69.62 09/17/2022 20:12:06 71.73,-123.67 69.62 1.67 25
21 09/17/2022 21:01:06 -71.74, 43.94 110.37 09/17/2022 21:01:34 -71.72, 43.95 110.39 2.03 28
22 09/17/2022 21:50:33 71.74,-148.43 69.65 09/17/2022 21:50:59 71.73,-148.39 69.64 1.97 26
23 09/17/2022 22:39:58 -71.74, 19.22 110.34 09/17/2022 22:40:27 -71.71, 19.22 110.37 2.78 29
24 09/17/2022 23:29:25 71.74,-173.15 69.68 09/17/2022 23:29:52 71.72,-173.12 69.66 2.53 27
25 09/18/2022 00:18:50 -71.74, -5.50 110.31 09/18/2022 00:19:20 -71.71, -5.51 110.35 3.56 30
26 09/18/2022 01:08:17 71.75, 162.13 69.71 09/18/2022 01:08:45 71.72, 162.15 69.68 3.21 28
27 09/18/2022 01:57:42 -71.74, -30.22 110.28 09/18/2022 01:58:12 -71.76, -30.15 110.27 2.97 30
28 09/18/2022 02:47:08 71.69, 137.50 69.68 09/18/2022 02:47:38 71.71, 137.42 69.70 3.61 30
29 09/18/2022 03:36:34 -71.75, -54.94 110.26 09/18/2022 03:37:05 -71.75, -54.88 110.25 2.33 31
30 09/18/2022 04:26:01 71.75, 112.69 69.77 09/18/2022 04:26:30 71.76, 112.78 69.78 3.33 29
31 09/18/2022 05:15:26 -71.75, -79.66 110.23 09/18/2022 05:15:58 -71.75, -79.61 110.22 1.85 32
32 09/18/2022 06:04:53 71.75, 87.97 69.80 09/18/2022 06:05:23 71.76, 88.05 69.80 2.82 30
33 09/18/2022 06:54:18 -71.75,-104.38 110.20 09/18/2022 06:54:51 -71.74,-104.33 110.20 1.67 33
34 09/18/2022 07:43:45 71.76, 63.25 69.82 09/18/2022 07:44:16 71.75, 63.32 69.82 2.50 31
35 09/18/2022 08:33:10 -71.75,-129.10 110.17 09/18/2022 08:33:44 -71.74,-129.06 110.18 1.89 34
36 09/18/2022 09:22:37 71.76, 38.53 69.85 09/18/2022 09:23:09 71.75, 38.59 69.84 2.46 32
37 09/18/2022 10:12:02 -71.76,-153.82 110.14 09/18/2022 10:12:37 -71.74,-153.79 110.16 2.41 35
38 09/18/2022 11:01:29 71.76, 13.81 69.88 09/18/2022 11:02:02 71.74, 13.87 69.87 2.70 33
39 09/18/2022 11:50:54 -71.76,-178.54 110.11 09/18/2022 11:51:30 -71.73,-178.52 110.14 3.07 36
40 09/18/2022 12:40:21 71.76, -10.91 69.91 09/18/2022 12:40:55 71.74, -10.86 69.89 3.18 34
41 09/18/2022 13:29:45 -71.71, 156.83 110.14 09/18/2022 13:30:23 -71.73, 156.75 110.12 3.60 38
42 09/18/2022 14:19:12 71.71, -35.54 69.89 09/18/2022 14:19:48 71.73, -35.59 69.91 3.10 36
43 09/18/2022 15:08:36 -71.71, 132.11 110.11 09/18/2022 15:09:15 -71.72, 132.02 110.09 3.46 39
44 09/18/2022 15:58:03 71.71, -60.26 69.92 09/18/2022 15:58:40 71.73, -60.32 69.93 2.76 37
45 09/18/2022 16:47:29 -71.77, 107.30 110.02 09/18/2022 16:48:07 -71.77, 107.38 110.02 2.93 38
46 09/18/2022 17:36:55 71.72, -84.98 69.95 09/18/2022 17:37:33 71.72, -85.05 69.95 2.67 38
47 09/18/2022 18:26:21 -71.77, 82.58 109.99 09/18/2022 18:27:00 -71.77, 82.65 110.00 2.58 39
48 09/18/2022 19:15:47 71.72,-109.70 69.98 09/18/2022 19:16:26 71.72,-109.78 69.98 2.86 39
49 09/18/2022 20:05:13 -71.77, 57.86 109.97 09/18/2022 20:05:53 -71.76, 57.93 109.97 2.49 40
50 09/18/2022 20:54:39 71.72,-134.42 70.00 09/18/2022 20:55:19 71.71,-134.51 70.00 3.28 40
51 09/18/2022 21:44:05 -71.77, 33.14 109.94 09/18/2022 21:44:46 -71.76, 33.20 109.95 2.68 41
52 09/18/2022 22:33:32 71.78,-159.23 70.09 09/18/2022 22:34:11 71.76,-159.15 70.07 3.38 39
53 09/18/2022 23:22:57 -71.78, 8.42 109.91 09/18/2022 23:23:39 -71.75, 8.47 109.93 3.12 42
54 09/19/2022 00:12:23 71.73, 176.14 70.06 09/19/2022 00:13:04 71.76, 176.12 70.10 3.52 41
55 09/19/2022 01:01:48 -71.72, -16.21 109.93 09/19/2022 01:02:32 -71.75, -16.26 109.91 3.11 44
56 09/19/2022 01:51:15 71.73, 151.42 70.09 09/19/2022 01:51:57 71.75, 151.39 70.12 2.78 42
57 09/19/2022 02:40:40 -71.73, -40.93 109.90 09/19/2022 02:41:25 -71.74, -40.99 109.89 2.72 45
58 09/19/2022 03:30:07 71.73, 126.70 70.12 09/19/2022 03:30:50 71.75, 126.67 70.14 2.15 43
59 09/19/2022 04:19:32 -71.73, -65.65 109.87 09/19/2022 04:20:18 -71.74, -65.72 109.86 2.58 46
60 09/19/2022 05:08:59 71.74, 101.98 70.15 09/19/2022 05:09:43 71.74, 101.94 70.16 1.76 44
61 09/19/2022 05:58:24 -71.73, -90.37 109.84 09/19/2022 05:59:11 -71.73, -90.45 109.84 2.72 47
62 09/19/2022 06:47:51 71.74, 77.26 70.18 09/19/2022 06:48:36 71.74, 77.21 70.18 1.78 45
63 09/19/2022 07:37:16 -71.73,-115.09 109.81 09/19/2022 07:38:04 -71.73,-115.18 109.82 3.11 48
64 09/19/2022 08:26:43 71.74, 52.54 70.21 09/19/2022 08:27:29 71.73, 52.48 70.20 2.21 46
65 09/19/2022 09:16:09 -71.79,-139.90 109.73 09/19/2022 09:16:56 -71.78,-139.82 109.74 3.43 47
66 09/19/2022 10:05:35 71.74, 27.82 70.24 09/19/2022 10:06:22 71.73, 27.75 70.23 2.86 47
67 09/19/2022 10:55:00 -71.74,-164.53 109.76 09/19/2022 10:55:49 -71.77,-164.54 109.72 3.58 49
68 09/19/2022 11:44:27 71.75, 3.10 70.27 09/19/2022 11:45:14 71.78, 3.11 70.30 3.59 47
69 09/19/2022 12:33:52 -71.74, 170.75 109.73 09/19/2022 12:34:42 -71.77, 170.73 109.70 2.81 50
70 09/19/2022 13:23:19 71.75, -21.62 70.30 09/19/2022 13:24:07 71.77, -21.62 70.32 2.70 48
71 09/19/2022 14:12:44 -71.75, 146.03 109.70 09/19/2022 14:13:35 -71.76, 146.00 109.68 2.14 51
72 09/19/2022 15:02:11 71.75, -46.35 70.33 09/19/2022 15:03:00 71.77, -46.35 70.35 1.83 49
73 09/19/2022 15:51:36 -71.75, 121.31 109.67 09/19/2022 15:52:28 -71.76, 121.27 109.66 1.68 52
74 09/19/2022 16:41:03 71.76, -71.07 70.36 09/19/2022 16:41:53 71.76, -71.08 70.37 1.04 50
75 09/19/2022 17:30:28 -71.75, 96.59 109.64 09/19/2022 17:31:21 -71.75, 96.54 109.64 1.63 53
76 09/19/2022 18:19:55 71.76, -95.79 70.39 09/19/2022 18:20:46 71.76, -95.81 70.39 0.68 51
77 09/19/2022 19:09:20 -71.75, 71.86 109.61 09/19/2022 19:10:14 -71.75, 71.81 109.61 2.03 54
78 09/19/2022 19:58:47 71.76,-120.51 70.42 09/19/2022 19:59:39 71.75,-120.54 70.41 1.24 52
79 09/19/2022 20:48:12 -71.76, 47.14 109.58 09/19/2022 20:49:07 -71.74, 47.08 109.59 2.68 55
80 09/19/2022 21:37:39 71.76,-145.23 70.45 09/19/2022 21:38:32 71.75,-145.26 70.43 2.08 53
81 09/19/2022 22:27:04 -71.76, 22.42 109.55 09/19/2022 22:28:00 -71.74, 22.35 109.57 3.45 56
82 09/19/2022 23:16:31 71.77,-169.95 70.48 09/19/2022 23:17:25 71.74,-169.99 70.45 2.97 54
83 09/20/2022 00:05:56 -71.76, -2.30 109.52 09/20/2022 00:06:52 -71.79, -2.29 109.49 2.77 56
84 09/20/2022 00:55:23 71.77, 165.33 70.50 09/20/2022 00:56:17 71.79, 165.37 70.53 2.92 54
85 09/20/2022 01:44:48 -71.77, -27.02 109.49 09/20/2022 01:45:45 -71.78, -27.02 109.47 1.89 57
86 09/20/2022 02:34:15 71.77, 140.61 70.53 09/20/2022 02:35:10 71.79, 140.64 70.55 2.01 55
87 09/20/2022 03:23:40 -71.77, -51.74 109.46 09/20/2022 03:24:38 -71.78, -51.75 109.45 1.04 58
88 09/20/2022 04:13:07 71.78, 115.89 70.56 09/20/2022 04:14:03 71.78, 115.91 70.57 1.12 56
89 09/20/2022 05:02:32 -71.77, -76.46 109.43 09/20/2022 05:03:31 -71.77, -76.47 109.43 0.52 59
90 09/20/2022 05:51:59 71.78, 91.17 70.59 09/20/2022 05:52:56 71.78, 91.18 70.59 0.46 57
91 09/20/2022 06:41:24 -71.77,-101.18 109.40 09/20/2022 06:42:24 -71.77,-101.20 109.41 1.07 60
92 09/20/2022 07:30:51 71.78, 66.44 70.62 09/20/2022 07:31:49 71.77, 66.45 70.62 0.97 58
93 09/20/2022 08:20:16 -71.78,-125.90 109.37 09/20/2022 08:21:17 -71.76,-125.93 109.39 1.93 61
94 09/20/2022 09:09:43 71.78, 41.72 70.65 09/20/2022 09:10:42 71.77, 41.72 70.64 1.86 59
95 09/20/2022 09:59:08 -71.78,-150.62 109.34 09/20/2022 10:00:10 -71.76,-150.66 109.36 2.83 62
96 09/20/2022 10:48:35 71.79, 17.00 70.68 09/20/2022 10:49:35 71.76, 16.99 70.66 2.79 60
97 09/20/2022 11:38:00 -71.78,-175.34 109.31 09/20/2022 11:39:02 -71.81,-175.30 109.29 3.03 62
98 09/20/2022 12:27:27 71.79, -7.72 70.71 09/20/2022 12:28:27 71.81, -7.65 70.74 3.42 60
99 09/20/2022 13:16:52 -71.79, 159.93 109.28 09/20/2022 13:17:55 -71.80, 159.97 109.27 2.13 63
100 09/20/2022 14:06:19 71.79, -32.44 70.74 09/20/2022 14:07:20 71.81, -32.38 70.76 2.63 61
101 09/20/2022 14:55:44 -71.79, 135.21 109.25 09/20/2022 14:56:48 -71.80, 135.24 109.24 1.27 64
102 09/20/2022 15:45:11 71.80, -57.16 70.77 09/20/2022 15:46:13 71.80, -57.11 70.78 1.98 62
103 09/20/2022 16:34:36 -71.79, 110.49 109.22 09/20/2022 16:35:41 -71.79, 110.51 109.22 0.66 65
104 09/20/2022 17:24:03 71.80, -81.88 70.80 09/20/2022 17:25:06 71.80, -81.84 70.80 1.67 63
105 09/20/2022 18:13:27 -71.80, 85.77 109.19 09/20/2022 18:14:33 -71.79, 85.78 109.20 1.01 66
106 09/20/2022 19:02:54 71.80,-106.60 70.83 09/20/2022 19:03:58 71.79,-106.57 70.82 1.87 64
107 09/20/2022 19:52:19 -71.80, 61.05 109.16 09/20/2022 19:53:26 -71.78, 61.05 109.18 1.84 67
108 09/20/2022 20:41:46 71.81,-131.33 70.86 09/20/2022 20:42:51 71.79,-131.29 70.84 2.46 65
109 09/20/2022 21:31:11 -71.80, 36.33 109.13 09/20/2022 21:32:19 -71.78, 36.32 109.16 2.74 68
110 09/20/2022 22:20:38 71.81,-156.05 70.89 09/20/2022 22:21:44 71.78,-156.02 70.87 3.24 66
111 09/20/2022 23:10:03 -71.80, 11.61 109.10 09/20/2022 23:11:11 -71.83, 11.68 109.08 3.56 68
112 09/20/2022 23:59:29 71.76, 179.32 70.87 09/21/2022 00:00:37 71.78, 179.25 70.89 3.33 68
113 09/21/2022 00:48:55 -71.81, -13.11 109.07 09/21/2022 00:50:04 -71.82, -13.04 109.06 2.80 69
114 09/21/2022 01:38:21 71.76, 154.60 70.90 09/21/2022 01:39:30 71.77, 154.52 70.91 3.17 69
115 09/21/2022 02:27:47 -71.81, -37.84 109.04 09/21/2022 02:28:57 -71.82, -37.77 109.04 2.18 70
116 09/21/2022 03:17:14 71.82, 129.79 70.98 09/21/2022 03:18:22 71.82, 129.88 70.98 3.11 68
117 09/21/2022 04:06:39 -71.81, -62.56 109.01 09/21/2022 04:07:50 -71.81, -62.50 109.02 1.88 71
118 09/21/2022 04:56:06 71.82, 105.07 71.01 09/21/2022 04:57:15 71.82, 105.15 71.01 2.95 69
119 09/21/2022 05:45:31 -71.82, -87.28 108.99 09/21/2022 05:46:43 -71.81, -87.23 108.99 2.04 72
120 09/21/2022 06:34:58 71.83, 80.35 71.04 09/21/2022 06:36:08 71.81, 80.42 71.03 3.11 70
121 09/21/2022 07:24:24 -71.87,-112.09 108.90 09/21/2022 07:25:35 -71.85,-111.87 108.92 7.96 71
122 09/21/2022 08:13:50 71.83, 55.62 71.07 09/21/2022 08:15:01 71.80, 55.69 71.05 3.55 71
123 09/21/2022 09:03:16 -71.88,-136.81 108.87 09/21/2022 09:04:28 -71.85,-136.60 108.90 8.01 72
124 09/21/2022 09:52:42 71.83, 30.90 71.10 09/21/2022 09:53:54 71.80, 30.96 71.07 4.18 72
125 09/21/2022 10:42:09 -71.93,-161.63 108.79 09/21/2022 10:43:20 -71.90,-161.24 108.82 14.05 71
126 09/21/2022 11:31:35 71.89, 6.09 71.19 09/21/2022 11:32:46 71.85, 6.32 71.15 9.32 71
127 09/21/2022 12:21:01 -71.94, 173.65 108.76 09/21/2022 12:22:13 -71.89, 174.03 108.80 14.09 72
128 09/21/2022 13:10:27 71.89, -18.63 71.22 09/21/2022 13:11:39 71.84, -18.41 71.17 9.60 72
129 09/21/2022 13:59:54 -71.99, 148.83 108.68 09/21/2022 14:01:05 -71.94, 149.39 108.72 20.15 71
130 09/21/2022 14:49:20 71.95, -43.45 71.30 09/21/2022 14:50:31 71.89, -43.05 71.25 15.38 71
131 09/21/2022 15:38:47 -72.05, 124.02 108.59 09/21/2022 15:39:57 -71.99, 124.76 108.65 26.26 70
132 09/21/2022 16:28:12 71.95, -68.17 71.33 09/21/2022 16:29:23 71.94, -67.68 71.32 16.90 71
133 09/21/2022 17:17:39 -72.05, 99.30 108.56 09/21/2022 17:18:50 -71.98, 100.03 108.63 26.26 71
134 09/21/2022 18:07:05 72.01, -92.99 71.41 09/21/2022 18:08:16 71.94, -92.41 71.34 21.49 71
135 09/21/2022 18:56:32 -72.11, 74.48 108.48 09/21/2022 18:57:42 -72.03, 75.39 108.55 32.36 70
136 09/21/2022 19:45:58 72.07,-117.81 71.50 09/21/2022 19:47:08 71.98,-117.05 71.42 27.54 70
137 09/21/2022 20:35:24 -72.11, 49.76 108.45 09/21/2022 20:36:34 -72.08, 50.75 108.47 34.26 70
138 09/21/2022 21:24:50 72.07,-142.53 71.53 09/21/2022 21:26:00 72.03,-141.69 71.50 29.13 70
139 09/21/2022 22:14:17 -72.17, 24.94 108.36 09/21/2022 22:15:26 -72.13, 26.12 108.40 40.42 69
140 09/21/2022 23:03:43 72.13,-167.35 71.61 09/21/2022 23:04:52 72.08,-166.32 71.57 35.32 69
141 09/21/2022 23:53:09 -72.17, 0.22 108.33 09/21/2022 23:54:19 -72.13, 1.39 108.38 40.27 70
142 09/22/2022 00:42:35 72.13, 167.93 71.64 09/22/2022 00:43:45 72.08, 168.95 71.59 35.21 70
143 09/22/2022 01:32:02 -72.23, -24.60 108.25 09/22/2022 01:33:11 -72.17, -23.25 108.30 46.44 69
144 09/22/2022 02:21:28 72.19, 143.11 71.73 09/22/2022 02:22:37 72.12, 144.31 71.67 41.40 69
145 09/22/2022 03:10:55 -72.29, -49.42 108.17 09/22/2022 03:12:03 -72.22, -47.88 108.22 52.60 68
146 09/22/2022 04:00:20 72.19, 118.39 71.76 09/22/2022 04:01:29 72.17, 119.68 71.75 43.73 69
147 09/22/2022 04:49:47 -72.29, -74.14 108.14 09/22/2022 04:50:55 -72.27, -72.52 108.15 55.02 68
148 09/22/2022 05:39:13 72.25, 93.57 71.84 09/22/2022 05:40:21 72.22, 95.04 71.82 49.90 68
149 09/22/2022 06:28:40 -72.35, -98.96 108.05 09/22/2022 06:29:48 -72.27, -97.25 108.13 58.65 68
150 09/22/2022 07:18:06 72.31, 68.75 71.92 09/22/2022 07:19:14 72.22, 70.31 71.84 53.70 68
151 09/22/2022 08:07:32 -72.35,-123.68 108.02 09/22/2022 08:08:40 -72.31,-121.88 108.05 60.95 68
152 09/22/2022 08:56:58 72.31, 44.03 71.95 09/22/2022 08:58:06 72.27, 45.68 71.92 55.88 68
153 09/22/2022 09:46:25 -72.41,-148.50 107.94 09/22/2022 09:47:32 -72.36,-146.52 107.97 67.10 67
154 09/22/2022 10:35:51 72.37, 19.21 72.04 09/22/2022 10:36:58 72.31, 21.04 72.00 62.07 67
155 09/22/2022 11:25:17 -72.41,-173.23 107.91 09/22/2022 11:26:25 -72.36,-171.25 107.95 66.92 68
156 09/22/2022 12:14:43 72.37, -5.51 72.07 09/22/2022 12:15:51 72.31, -3.69 72.02 61.91 68
157 09/22/2022 13:04:10 -72.47, 161.95 107.83 09/22/2022 13:05:17 -72.40, 164.12 107.88 73.08 67
158 09/22/2022 13:53:36 72.43, -30.33 72.15 09/22/2022 13:54:43 72.36, -28.32 72.09 68.11 67
159 09/22/2022 14:43:03 -72.52, 137.13 107.74 09/22/2022 14:44:09 -72.45, 139.49 107.80 79.24 66
160 09/22/2022 15:32:28 72.43, -55.06 72.18 09/22/2022 15:33:35 72.40, -52.96 72.17 70.61 67
161 09/22/2022 16:21:55 -72.53, 112.41 107.71 09/22/2022 16:23:01 -72.50, 114.85 107.72 81.78 66
162 09/22/2022 17:11:21 72.49, -79.88 72.27 09/22/2022 17:12:27 72.45, -77.59 72.25 76.77 66
163 09/22/2022 18:00:48 -72.58, 87.58 107.63 09/22/2022 18:01:53 -72.55, 90.22 107.65 87.91 65
164 09/22/2022 18:50:14 72.55,-104.70 72.35 09/22/2022 18:51:20 72.45,-102.32 72.27 80.37 66
165 09/22/2022 19:39:40 -72.59, 62.86 107.60 09/22/2022 19:40:46 -72.54, 65.49 107.63 87.70 66
166 09/22/2022 20:29:06 72.55,-129.42 72.38 09/22/2022 20:30:12 72.50,-126.95 72.34 82.74 66
167 09/22/2022 21:18:32 -72.64, 38.04 107.51 09/22/2022 21:19:37 -72.59, 40.86 107.55 93.85 65
168 09/22/2022 22:07:58 72.61,-154.25 72.47 09/22/2022 22:09:03 72.54,-151.59 72.42 88.93 65
169 09/22/2022 22:57:25 -72.70, 13.21 107.43 09/22/2022 22:58:29 -72.64, 16.23 107.47 99.99 64
170 09/22/2022 23:46:50 72.61,-178.97 72.50 09/22/2022 23:47:55 72.59,-176.22 72.50 91.58 65
171 09/23/2022 01:25:43 72.67, 156.21 72.58 09/23/2022 01:26:47 72.64, 159.15 72.57 97.73 64



Historial Predications of SNOs between AQUA and TERRA
